Location: Vigo di Fassa
(46.4167°N, 11.6667°E)
Time: 21:38:39
(UTC+00:00)

Cosmos 1666 - Pass Details

Date: 03 March 2021
Orbit: 497 x 518 km, 82.5° (Epoch: 22 April)

Event Time Altitude Azimuth Distance (km) Brightness Sun altitude
Rises 18:27:57 0° 175° (S) 2,571 6.1 -15.5°
Reaches altitude 10° 18:30:05 10° 170° (S) 1,694 5.1 -15.9°
Maximum altitude 18:33:40 50° 95° (E) 647 2.7 -16.5°
Drops below altitude 10° 18:37:18 10° 19° (NNE) 1,715 5.2 -17.1°
Sets 18:39:28 0° 14° (NNE) 2,607 6.2 -17.5°
